EN

Hourly Weather La Argentina

Today, 5 August, Thursday

Time Temperature Precipitation Wind Pressure Humidity
00:00 +14°C° 0 mm 1 mps 634 mmHg 91%
01:00 +13°C° 0 mm 1 mps 634 mmHg 91%
02:00 +13°C° 0 mm 1 mps 634 mmHg 90%
03:00 +13°C° 0 mm 1 mps 633 mmHg 89%
04:00 +13°C° 0 mm 1 mps 633 mmHg 87%
05:00 +13°C° 0 mm 1 mps 634 mmHg 86%
06:00 +14°C° 0 mm 1 mps 634 mmHg 85%
07:00 +14°C° 0 mm 1 mps 634 mmHg 84%
08:00 +16°C° 0 mm 1 mps 635 mmHg 74%
09:00 +18°C° 0 mm 2 mps 636 mmHg 65%
10:00 +21°C° 0 mm 2 mps 637 mmHg 55%
11:00 +23°C° 0 mm 2 mps 636 mmHg 53%
12:00 +23°C° 0 mm 2 mps 636 mmHg 52%
13:00 +24°C° 0 mm 2 mps 635 mmHg 50%
14:00 +23°C° 0 mm 2 mps 635 mmHg 55%
15:00 +21°C° 0 mm 2 mps 634 mmHg 61%
16:00 +21°C° 0 mm 2 mps 633 mmHg 66%
17:00 +19°C° 0 mm 2 mps 633 mmHg 75%
18:00 +18°C° 0 mm 1 mps 633 mmHg 83%
19:00 +16°C° 0 mm 1 mps 633 mmHg 91%
20:00 +15°C° 0 mm 1 mps 633 mmHg 91%
21:00 +15°C° 0 mm 1 mps 634 mmHg 92%
22:00 +14°C° 0 mm 1 mps 634 mmHg 92%
23:00 +14°C° 0 mm 1 mps 634 mmHg 91%

Tomorrow, 6 August, Friday

Time Temperature Precipitation Wind Pressure Humidity
00:00 +14°C° 0 mm 1 mps 633 mmHg 90%
01:00 +14°C° 0 mm 1 mps 633 mmHg 90%
02:00 +14°C° 0 mm 1 mps 633 mmHg 88%
03:00 +13°C° 0 mm 1 mps 632 mmHg 86%
04:00 +13°C° 0 mm 1 mps 632 mmHg 85%
05:00 +14°C° 0 mm 1 mps 633 mmHg 83%
06:00 +14°C° 0 mm 1 mps 633 mmHg 81%
07:00 +15°C° 0 mm 1 mps 633 mmHg 79%
08:00 +18°C° 0 mm 1 mps 634 mmHg 70%
09:00 +21°C° 0 mm 1 mps 635 mmHg 61%
10:00 +24°C° 0 mm 2 mps 636 mmHg 52%
11:00 +24°C° 0 mm 2 mps 635 mmHg 52%
12:00 +24°C° 0 mm 2 mps 635 mmHg 53%
13:00 +25°C° 0 mm 2 mps 634 mmHg 53%
14:00 +24°C° 0.1 mm 2 mps 634 mmHg 55%
15:00 +24°C° 0.1 mm 2 mps 633 mmHg 58%
16:00 +24°C° 0.1 mm 2 mps 633 mmHg 60%
17:00 +21°C° 0.1 mm 2 mps 633 mmHg 69%
18:00 +18°C° 0.1 mm 2 mps 633 mmHg 79%
19:00 +16°C° 0.1 mm 1 mps 633 mmHg 88%
20:00 +16°C° 0 mm 1 mps 633 mmHg 88%
21:00 +15°C° 0 mm 2 mps 633 mmHg 88%
22:00 +15°C° 0 mm 2 mps 633 mmHg 89%
23:00 +14°C° 0 mm 2 mps 633 mmHg 88%

Day after tomorrow, 7 August, Saturday

Time Temperature Precipitation Wind Pressure Humidity
00:00 +14°C° 0 mm 2 mps 633 mmHg 88%
01:00 +14°C° 0 mm 2 mps 632 mmHg 87%
02:00 +14°C° 0 mm 1 mps 632 mmHg 87%
03:00 +14°C° 0 mm 1 mps 632 mmHg 87%
04:00 +14°C° 0 mm 1 mps 632 mmHg 86%
05:00 +14°C° 0 mm 1 mps 632 mmHg 85%
06:00 +15°C° 0 mm 1 mps 633 mmHg 83%
07:00 +15°C° 0 mm 1 mps 633 mmHg 82%
08:00 +19°C° 0 mm 1 mps 634 mmHg 72%
09:00 +22°C° 0 mm 1 mps 635 mmHg 62%
10:00 +24°C° 0 mm 2 mps 635 mmHg 53%
11:00 +25°C° 0.1 mm 2 mps 635 mmHg 52%
12:00 +25°C° 0.1 mm 2 mps 635 mmHg 51%
13:00 +26°C° 0.1 mm 2 mps 634 mmHg 50%
14:00 +26°C° 0.1 mm 2 mps 634 mmHg 52%
15:00 +25°C° 0.1 mm 2 mps 633 mmHg 55%
16:00 +25°C° 0.1 mm 2 mps 632 mmHg 57%
17:00 +21°C° 0.1 mm 2 mps 632 mmHg 68%
18:00 +19°C° 0.1 mm 2 mps 632 mmHg 78%
19:00 +18°C° 0.1 mm 1 mps 632 mmHg 89%
20:00 +16°C° 0 mm 1 mps 632 mmHg 90%
21:00 +16°C° 0 mm 1 mps 632 mmHg 90%
22:00 +15°C° 0 mm 1 mps 633 mmHg 91%
23:00 +15°C° 0 mm 1 mps 632 mmHg 91%

8 August, Sunday

Time Temperature Precipitation Wind Pressure Humidity
00:00 +15°C° 0 mm 1 mps 632 mmHg 90%
01:00 +15°C° 0 mm 1 mps 632 mmHg 90%
02:00 +15°C° 0 mm 1 mps 632 mmHg 89%
03:00 +14°C° 0 mm 1 mps 632 mmHg 89%
04:00 +14°C° 0 mm 1 mps 631 mmHg 88%
05:00 +15°C° 0 mm 1 mps 632 mmHg 86%
06:00 +15°C° 0 mm 1 mps 632 mmHg 84%
07:00 +16°C° 0 mm 1 mps 633 mmHg 82%
08:00 +20°C° 0 mm 1 mps 633 mmHg 73%
09:00 +22°C° 0 mm 1 mps 634 mmHg 63%
10:00 +25°C° 0 mm 1 mps 635 mmHg 54%
11:00 +25°C° 0 mm 1 mps 634 mmHg 52%
12:00 +26°C° 0 mm 2 mps 634 mmHg 50%
13:00 +27°C° 0 mm 2 mps 633 mmHg 48%
14:00 +26°C° 0.2 mm 2 mps 633 mmHg 55%
15:00 +25°C° 0.2 mm 2 mps 632 mmHg 62%
16:00 +24°C° 0.2 mm 2 mps 632 mmHg 69%
17:00 +21°C° 0.4 mm 2 mps 632 mmHg 77%
18:00 +19°C° 0.4 mm 2 mps 632 mmHg 85%
19:00 +17°C° 0.4 mm 2 mps 632 mmHg 93%
20:00 +16°C° 0 mm 2 mps 632 mmHg 93%
21:00 +16°C° 0 mm 2 mps 632 mmHg 93%
22:00 +15°C° 0 mm 2 mps 632 mmHg 93%
23:00 +15°C° 0 mm 2 mps 632 mmHg 93%

9 August, Monday

Time Temperature Precipitation Wind Pressure Humidity
00:00 +15°C° 0 mm 1 mps 632 mmHg 93%
01:00 +15°C° 0 mm 1 mps 632 mmHg 92%
02:00 +15°C° 0.1 mm 1 mps 632 mmHg 92%
03:00 +15°C° 0.1 mm 1 mps 632 mmHg 92%
04:00 +16°C° 0.1 mm 1 mps 632 mmHg 92%
05:00 +16°C° 0 mm 1 mps 632 mmHg 91%
06:00 +16°C° 0 mm 1 mps 632 mmHg 91%
07:00 +18°C° 0 mm 1 mps 633 mmHg 90%
08:00 +19°C° 0.3 mm 1 mps 633 mmHg 87%
09:00 +20°C° 0.3 mm 1 mps 634 mmHg 85%
10:00 +21°C° 0.3 mm 1 mps 634 mmHg 82%
11:00 +21°C° 0.9 mm 1 mps 634 mmHg 81%
12:00 +22°C° 0.9 mm 1 mps 634 mmHg 80%
13:00 +23°C° 0.9 mm 1 mps 633 mmHg 79%
14:00 +23°C° 1.1 mm 1 mps 633 mmHg 79%
15:00 +22°C° 1.1 mm 1 mps 632 mmHg 80%
16:00 +22°C° 1.1 mm 1 mps 632 mmHg 81%
17:00 +21°C° 0.3 mm 1 mps 632 mmHg 85%
18:00 +19°C° 0.3 mm 1 mps 632 mmHg 89%
19:00 +18°C° 0.3 mm 1 mps 632 mmHg 93%
20:00 +16°C° 0 mm 1 mps 632 mmHg 93%
21:00 +16°C° 0 mm 1 mps 632 mmHg 93%
22:00 +15°C° 0 mm 1 mps 633 mmHg 94%
23:00 +16°C° 0 mm 1 mps 633 mmHg 93%

10 August, Tuesday

Time Temperature Precipitation Wind Pressure Humidity
00:00 +16°C° 0 mm 1 mps 633 mmHg 92%
01:00 +16°C° 0 mm 1 mps 632 mmHg 92%
02:00 +16°C° 0.2 mm 1 mps 632 mmHg 92%
03:00 +16°C° 0.2 mm 1 mps 632 mmHg 93%
04:00 +16°C° 0.2 mm 1 mps 632 mmHg 93%
05:00 +16°C° 1.4 mm 1 mps 632 mmHg 95%
06:00 +16°C° 1.4 mm 1 mps 633 mmHg 96%
07:00 +16°C° 1.4 mm 1 mps 633 mmHg 98%
08:00 +18°C° 0.4 mm 1 mps 634 mmHg 96%
09:00 +18°C° 0.4 mm 1 mps 634 mmHg 94%
10:00 +19°C° 0.4 mm 1 mps 634 mmHg 93%
11:00 +19°C° 0.6 mm 1 mps 634 mmHg 90%
12:00 +20°C° 0.6 mm 1 mps 634 mmHg 86%
13:00 +21°C° 0.6 mm 1 mps 634 mmHg 83%
14:00 +21°C° 1 mm 1 mps 633 mmHg 84%
15:00 +21°C° 1 mm 1 mps 633 mmHg 85%
16:00 +21°C° 1 mm 1 mps 632 mmHg 85%
17:00 +20°C° 0.4 mm 1 mps 632 mmHg 88%
18:00 +18°C° 0.4 mm 1 mps 632 mmHg 91%
19:00 +16°C° 0.4 mm 1 mps 632 mmHg 94%
20:00 +16°C° 0 mm 1 mps 632 mmHg 93%
21:00 +15°C° 0 mm 1 mps 633 mmHg 93%
22:00 +15°C° 0 mm 2 mps 633 mmHg 93%
23:00 +15°C° 0 mm 1 mps 633 mmHg 92%
Show more